Regional Weather Roundup
Issued by NWS

Home | Current Version | Previous Version | Graphics & Text | Print | Product List | Glossary Off
Versions: 1 2 3 4 5 6 7 8 9 10 11 12 13 14 15 16 17 18 19 20 21 22 23 24 25 26 27 28 29 30 31 32 33 34 35 36 37 38 39 40 41 42 43 44 45 46 47 48 49 50

000
ASUS43 KTOP 071008
RWRKS

WEATHER ROUNDUP FOR KANSAS
NATIONAL WEATHER SERVICE GOODLAND KS
400 AM CST WED DEC 07 2016

NOTE:  "FAIR" INDICATES FEW OR NO CLOUDS BELOW 12,000 FEET WITH NO
SIGNIFICANT WEATHER AND/OR OBSTRUCTIONS TO VISIBILITY.

KSZ001>006-013>018-027>032-041>047-071100-
NORTHWEST KANSAS

CITY           SKY/WX    TMP DP  RH WIND       PRES   REMARKS
GOODLAND       CLOUDY    23  14  68 NE15      30.02R WCI  10
HAYS           CLOUDY    26  16  65 NE16      30.09S WCI  14
HILL CITY      CLOUDY    23  10  57 E12       30.12R WCI  12
RUSSELL        CLOUDY    25  15  66 NE12      30.09F WCI  14
$$

KSZ061>065-074>080-084>089-071100-
SOUTHWEST KANSAS

CITY           SKY/WX    TMP DP  RH WIND       PRES   REMARKS
DODGE CITY     CLOUDY    27  18  69 SE10      30.04S WCI  17
ELKHART          N/A     16   2  54 SE13        N/A  WCI   2
GARDEN CITY    CLOUDY    24  13  62 SE10      30.00R WCI  14
GREAT BEND     CLOUDY    30  18  60 SE7       30.09S
LIBERAL        PTCLDY    23  10  58 SE9       29.99S
PRATT          CLOUDY    29  17  61 SE8       30.09R
$$

KSZ066>073-081>083-090>101-071100-
SOUTHEAST KANSAS

CITY           SKY/WX    TMP DP  RH WIND       PRES   REMARKS
CHANUTE        CLOUDY    33  19  56 NE8       30.13F
COFFEYVILLE    CLOUDY    33  22  63 E3        30.15S
HUTCHINSON     CLOUDY    32  18  56 SE10      30.10F WCI  24
MEDICINE LODGE   N/A     33  17  51 E6        30.10R
NEWTON         CLOUDY    30  22  72 E6        30.11F
PARSONS        CLOUDY    35  18  49 VRB3      30.14F
WICHITA INTL   CLOUDY    34  16  47 E9        30.11F
WICHITA JABRA  CLOUDY    31  23  72 NE5       30.12S
WICHITA MCCONL PTCLDY    33  17  51 E7        30.11F
WINFIELD       CLOUDY    34  16  47 NE6       30.13R
$$

KSZ007>012-019>026-033>040-048>060-102>105-071100-
NORTHEAST KANSAS

CITY           SKY/WX    TMP DP  RH WIND       PRES   REMARKS
CONCORDIA      MOCLDY    24  12  60 N9        30.16S
EMPORIA        CLOUDY    30  16  56 NE9       30.15S
LAWRENCE       CLOUDY    30  13  49 NE6       30.19F
MANHATTAN      PTCLDY    27  12  53 NE7       30.17F
MARYSVILLE     CLOUDY    23  18  80 N5        30.18R
OLATHE IND     CLOUDY    31  14  49 NE6       30.18F
OLATHE EXE     CLOUDY    31   9  39 NE7       30.17F
SALINA         PTCLDY    29  15  56 E6        30.16S
TOPEKA BILLARD CLOUDY    30  14  51 NE6       30.19F
TOPEKA FORBES  CLOUDY    31  13  47 NE7       30.17F
$$




USA.gov is the U.S. government's official web portal to all federal, state and local government web resources and services.